Terminal Aerodrome Forecast
Issued by NWS Sioux Falls, SD

Home | Current Version | Previous Version | Graphics & Text | Print | Product List | Glossary On
Versions: 1 2 3 4 5 6 7 8 9 10 11 12 13 14 15 16 17 18 19 20 21 22 23 24 25 26 27 28 29 30 31 32 33 34
000
FTUS43 KFSD 232331
TAFSUX
TAF
KSUX 232331Z 2400/2424 15012KT P6SM SCT120 BKN200
     FM240600 15013KT P6SM BKN050
     FM240900 15013KT P6SM OVC030
     FM241200 14013KT 5SM -RA OVC015
     FM241800 13015KT P6SM OVC015=

USA.gov is the U.S. government's official web portal to all federal, state and local government web resources and services.